Вернуться в каталог

KUIPER-00430

АктивенСвязьLEO
NORAD 68935·PAYLOAD·🇺🇸 United States

Запущен Apr 30, 2026 с Guiana Space Centre

Loading…

Ближайшие Пролёты (ближайшие 24 часа)

TLE

СвежийSource: CelesTrak SupGP

Эпоха: Sep 14, 2026, 23:03 UTC

1 68935C 26098S   26257.96048611  .00002563  00000+0  33541-3 0  2574
2 68935  51.9042  23.5816 0000675 104.9532 318.3543 14.79932846    12

Отслеживайте KUIPER-00430 в реальном времени с AllMySat

Download on the App Store